N1ULC Weather Reports


time (UTC)temp
C
wind
direction
speed
KPH
gust
KPH
rain 1hr
cm
rain 24hr
cm
rain mn
cm
humidity
%
barometer
mb
20260502151845 13 208 20.9 32.2 0.00 0.00 0.00 42 1010.7
20260502151320 14 200 24.1 38.6 0.00 0.00 0.00 41 1010.7
20260502150815 14 232 25.7 38.6 0.00 0.00 0.00 41 1010.7
20260502150333 13 205 27.4 37.0 0.00 0.00 0.00 43 1010.9
20260502130342 8 190 11.3 17.7 0.00 0.00 0.00 50 1012.7
20260502123326 8 204 8.0 19.3 0.00 0.00 0.00 51 1013.2
20260502122841 7 218 14.5 19.3 0.00 0.00 0.00 51 1013.2
20260502122333 7 213 12.9 19.3 0.00 0.00 0.00 53 1013.2
20260502121827 7 186 11.3 19.3 0.00 0.00 0.00 54 1013.3
20260502121324 7 193 8.0 14.5 0.00 0.00 0.00 55 1013.3
20260502120817 6 217 6.4 14.5 0.00 0.00 0.00 55 1013.3
20260502120334 6 231 8.0 16.1 0.00 0.00 0.00 54 1013.3
20260502115825 6 213 9.7 16.1 0.00 0.00 0.00 54 1013.3
20260502115355 6 190 1.6 17.7 0.00 0.00 0.00 53 1013.3
20260502114828 7 169 3.2 17.7 0.00 0.00 0.00 53 1013.7
20260502113831 7 178 4.8 14.5 0.00 0.00 0.00 53 1013.7
20260502113326 7 209 8.0 14.5 0.00 0.00 0.00 54 1013.8
20260502112843 6 190 8.0 14.5 0.00 0.00 0.00 55 1013.8
20260502112333 6 208 1.6 8.0 0.00 0.00 0.00 55 1013.8
20260502111826 6 209 3.2 6.4 0.00 0.00 0.00 55 1013.9
20260502111320 6 209 1.6 4.8 0.00 0.00 0.00 55 1013.9
20260502110854 6 209 1.6 4.8 0.00 0.00 0.00 55 1013.9
20260502110329 6 209 3.2 9.7 0.00 0.00 0.00 55 1013.9
20260502105823 6 217 3.2 9.7 0.00 0.00 0.00 55 1013.9
20260502105320 6 188 4.8 8.0 0.00 0.00 0.00 56 1013.9
20260502104832 6 178 3.2 11.3 0.00 0.00 0.00 56 1014.1
20260502104330 6 242 4.8 16.1 0.00 0.00 0.00 55 1014.1
20260502103823 6 240 4.8 17.7 0.00 0.00 0.00 54 1014.1
20260502103319 6 207 9.7 17.7 0.00 0.00 0.00 53 1014.0
20260502102834 6 205 12.9 20.9 0.00 0.00 0.00 53 1014.0
20260502102328 7 175 12.9 20.9 0.00 0.00 0.00 52 1014.0
20260502101842 7 202 16.1 24.1 0.00 0.00 0.00 52 1014.0
20260502101332 7 194 14.5 24.1 0.00 0.00 0.00 52 1014.0
20260502100828 7 173 12.9 22.5 0.00 0.00 0.00 53 1014.0
20260502100323 7 177 14.5 22.5 0.00 0.00 0.00 52 1014.1
20260502091328 7 166 20.9 30.6 0.00 0.00 0.00 52 1013.2
20260502090826 7 165 19.3 27.4 0.00 0.00 0.00 52 1013.2
20260502090323 7 171 16.1 20.9 0.00 0.00 0.00 53 1013.8
20260502071321 6 180 1.6 6.4 0.00 0.00 0.00 55 1015.1
20260502070817 6 180 3.2 6.4 0.00 0.00 0.00 54 1015.1
20260502070333 6 180 0.0 6.4 0.00 0.00 0.00 54 1015.1
20260502065833 6 180 0.0 9.7 0.00 0.00 0.00 53 1015.1
20260502065329 7 180 6.4 9.7 0.00 0.00 0.00 52 1015.1
20260502064845 6 195 4.8 9.7 0.00 0.00 0.00 53 1015.4
20260502064321 6 169 1.6 8.0 0.00 0.00 0.00 54 1015.4
20260502063819 6 192 4.8 8.0 0.00 0.00 0.00 53 1015.4
20260502063330 6 200 6.4 8.0 0.00 0.00 0.00 54 1015.6
20260502062826 6 214 6.4 8.0 0.00 0.00 0.00 54 1015.6
20260502062342 6 198 6.4 9.7 0.00 0.00 0.00 54 1015.6
20260502061832 6 198 8.0 11.3 0.00 0.00 0.00 54 1015.6
20260502061329 5 197 6.4 9.7 0.00 0.00 0.00 55 1015.6
20260502060826 6 197 6.4 11.3 0.00 0.00 0.00 55 1015.6
20260502060322 5 195 8.0 11.3 0.00 0.00 0.00 55 1015.7
20260502055819 5 200 8.0 11.3 0.00 0.00 0.00 55 1015.7
20260502055315 5 205 8.0 11.3 0.00 0.00 0.00 55 1015.7
20260502054833 5 208 8.0 14.5 0.00 0.00 0.00 54 1015.7
20260502054329 6 200 9.7 16.1 0.00 0.00 0.00 54 1015.7
20260502053826 5 204 12.9 16.1 0.00 0.00 0.00 54 1015.7
20260502053322 6 209 4.8 17.7 0.00 0.00 0.00 52 1015.7
20260502052817 6 195 9.7 17.7 0.00 0.00 0.00 52 1015.7
20260502052334 6 184 11.3 17.7 0.00 0.00 0.00 52 1015.7
20260502051829 6 194 11.3 16.1 0.00 0.00 0.00 52 1015.7
20260502051323 6 217 8.0 11.3 0.00 0.00 0.00 52 1015.7
20260502050839 6 203 6.4 17.7 0.00 0.00 0.00 50 1015.7
20260502050332 7 202 9.7 17.7 0.00 0.00 0.00 49 1015.7
20260502045821 7 198 11.3 16.1 0.00 0.00 0.00 49 1015.7
20260502045315 7 194 11.3 16.1 0.00 0.00 0.00 48 1015.7
20260502044832 7 194 11.3 17.7 0.00 0.00 0.00 47 1015.7
20260502044327 7 179 12.9 17.7 0.00 0.00 0.00 48 1015.7
20260502043823 7 200 12.9 17.7 0.00 0.00 0.00 47 1015.7
20260502043317 7 185 11.3 16.1 0.00 0.00 0.00 47 1015.9
20260502042833 7 200 14.5 16.1 0.00 0.00 0.00 47 1015.9
20260502042328 8 189 9.7 17.7 0.00 0.00 0.00 46 1015.9
20260502041842 8 165 9.7 17.7 0.00 0.00 0.00 44 1016.0
20260502041319 8 173 11.3 16.1 0.00 0.00 0.00 46 1016.0
20260502040836 8 186 11.3 16.1 0.00 0.00 0.00 46 1016.0
20260502040329 8 185 9.7 16.1 0.00 0.00 0.00 46 1016.0
20260502035844 8 183 12.9 17.7 0.00 0.00 0.00 45 1016.0
20260502035356 8 170 11.3 17.7 0.00 0.00 0.00 46 1016.0
20260502034829 7 192 9.7 11.3 0.00 0.00 0.00 46 1016.0
20260502034326 8 192 8.0 11.3 0.00 0.00 0.00 45 1016.0
20260502033841 7 190 9.7 11.3 0.00 0.00 0.00 46 1016.0
20260502033317 7 189 9.7 11.3 0.00 0.00 0.00 45 1016.0
20260502032832 7 188 8.0 11.3 0.00 0.00 0.00 46 1016.0
20260502032327 7 182 9.7 11.3 0.00 0.00 0.00 46 1016.0
20260502031822 7 192 8.0 12.9 0.00 0.00 0.00 47 1015.9
20260502031318 7 192 8.0 12.9 0.00 0.00 0.00 45 1015.9
20260502030854 8 186 9.7 11.3 0.00 0.00 0.00 45 1015.9
20260502030329 8 186 9.7 12.9 0.00 0.00 0.00 44 1015.8
20260502025827 8 187 9.7 14.5 0.00 0.00 0.00 44 1015.8
20260502025322 8 180 11.3 14.5 0.00 0.00 0.00 46 1015.8
20260502024835 7 197 8.0 9.7 0.00 0.00 0.00 48 1015.7
20260502024330 7 197 8.0 9.7 0.00 0.00 0.00 47 1015.7
20260502023825 7 197 8.0 9.7 0.00 0.00 0.00 46 1015.7
20260502023341 7 188 8.0 9.7 0.00 0.00 0.00 46 1015.7
20260502022815 8 198 6.4 8.0 0.00 0.00 0.00 43 1015.7
20260502022333 8 215 4.8 6.4 0.00 0.00 0.00 43 1015.7
20260502021849 9 224 4.8 8.0 0.00 0.00 0.00 42 1015.7
20260502021324 9 230 4.8 6.4 0.00 0.00 0.00 41 1015.7
20260502020818 10 200 4.8 8.0 0.00 0.00 0.00 41 1015.7
20260502020333 10 202 6.4 8.0 0.00 0.00 0.00 39 1015.7
20260502015829 10 227 4.8 6.4 0.00 0.00 0.00 38 1015.7
20260502015325 10 219 4.8 6.4 0.00 0.00 0.00 39 1015.7
20260502014855 11 219 4.8 6.4 0.00 0.00 0.00 37 1015.7
20260502014329 11 219 4.8 6.4 0.00 0.00 0.00 37 1015.7
20260502013825 12 219 4.8 4.8 0.00 0.00 0.00 35 1015.7
20260502013320 12 219 3.2 4.8 0.00 0.00 0.00 35 1015.6
20260502012815 13 219 3.2 4.8 0.00 0.00 0.00 34 1015.6
20260502012333 13 219 3.2 4.8 0.00 0.00 0.00 33 1015.6
20260502011829 13 219 3.2 6.4 0.00 0.00 0.00 32 1015.6
20260502011324 14 219 4.8 14.5 0.00 0.00 0.00 32 1015.6
20260502010819 14 223 6.4 14.5 0.00 0.00 0.00 32 1015.6
20260502010334 15 208 8.0 11.3 0.00 0.00 0.00 31 1015.7
20260502005828 15 250 4.8 8.0 0.00 0.00 0.00 31 1015.7
20260502005325 15 277 4.8 8.0 0.00 0.00 0.00 30 1015.7
20260502004818 15 271 4.8 8.0 0.00 0.00 0.00 29 1015.8
20260502004318 15 275 0.0 0.0 0.00 0.00 0.00 28 1015.8
20260502003856 16 276 0.0 0.0 0.00 0.00 0.00 28 1015.8
20260502003329 16 259 0.0 0.0 0.00 0.00 0.00 27 1015.8
20260502002824 16 264 0.0 0.0 0.00 0.00 0.00 28 1015.8
20260502002318 16 240 0.0 0.0 0.00 0.00 0.00 27 1015.8
20260502001833 16 271 0.0 0.0 0.00 0.00 0.00 27 1015.9
20260502001332 16 234 0.0 0.0 0.00 0.00 0.00 26 1015.9
20260502000826 16 302 0.0 0.0 0.00 0.00 0.00 29 1015.9
20260502000325 16 254 0.0 0.0 0.00 0.00 0.00 28 1015.9
20260501235819 16 276 0.0 0.0 0.00 0.00 0.00 26 1015.9
20260501235336 16 252 0.0 0.0 0.00 0.00 0.00 27 1015.9
20260501234829 18 329 0.0 0.0 0.00 0.00 0.00 25 1015.9
20260501234325 18 36 0.0 0.0 0.00 0.00 0.00 26 1015.9
20260501233821 16 28 0.0 0.0 0.00 0.00 0.00 26 1015.9
20260501233316 17 340 0.0 0.0 0.00 0.00 0.00 26 1016.0
20260501232834 16 290 0.0 0.0 0.00 0.00 0.00 26 1016.0
20260501232331 16 269 0.0 11.3 0.00 0.00 0.00 28 1016.0
20260501231826 16 296 0.0 16.1 0.00 0.00 0.00 29 1016.0
20260501231322 16 240 9.7 16.1 0.00 0.00 0.00 29 1016.0
20260501230818 16 288 11.3 17.7 0.00 0.00 0.00 28 1016.0
20260501230355 16 300 8.0 17.7 0.00 0.00 0.00 27 1016.1
20260501225829 15 284 3.2 11.3 0.00 0.00 0.00 29 1016.1
20260501225325 15 317 4.8 6.4 0.00 0.00 0.00 28 1016.1
20260501224901 16 307 0.0 0.0 0.00 0.00 0.00 27 1016.1
20260501224332 16 300 0.0 0.0 0.00 0.00 0.00 28 1016.1
20260501223827 16 244 0.0 0.0 0.00 0.00 0.00 30 1016.1
20260501223323 16 278 0.0 0.0 0.00 0.00 0.00 28 1016.1
20260501222816 16 254 0.0 0.0 0.00 0.00 0.00 27 1016.1
20260501222335 16 222 0.0 0.0 0.00 0.00 0.00 28 1016.1
20260501221851 16 288 0.0 0.0 0.00 0.00 0.00 31 1016.2
20260501221324 16 231 0.0 17.7 0.00 0.00 0.00 27 1016.2
20260501220818 17 326 1.6 17.7 0.00 0.00 0.00 28 1016.2
20260501220335 17 229 1.6 8.0 0.00 0.00 0.00 29 1016.6
20260501215325 15 330 6.4 16.1 0.00 0.00 0.00 29 1016.6
20260501214819 16 24 4.8 6.4 0.00 0.00 0.00 29 1016.8
20260501214334 16 113 0.0 9.7 0.00 0.00 0.00 28 1016.8
20260501213829 16 5 6.4 9.7 0.00 0.00 0.00 29 1016.8
20260501213323 15 335 0.0 4.8 0.00 0.00 0.00 30 1016.8
20260501212818 16 326 3.2 19.3 0.00 0.00 0.00 30 1016.8
20260501212316 16 355 8.0 19.3 0.00 0.00 0.00 28 1016.8
20260501211834 17 360 11.3 17.7 0.00 0.00 0.00 28 1016.9
20260501211349 16 130 0.0 16.1 0.00 0.00 0.00 27 1016.9
20260501210824 16 337 6.4 16.1 0.00 0.00 0.00 29 1016.9
20260501210319 16 250 3.2 11.3 0.00 0.00 0.00 31 1016.5
20260501205817 15 355 4.8 12.9 0.00 0.00 0.00 32 1016.5
20260501205336 15 327 6.4 20.9 0.00 0.00 0.00 32 1016.5
20260501204831 15 355 16.1 20.9 0.00 0.00 0.00 33 1016.4
20260501204345 15 69 4.8 16.1 0.00 0.00 0.00 31 1016.4
20260501203820 15 66 8.0 20.9 0.00 0.00 0.00 30 1016.4
20260501203334 15 30 11.3 20.9 0.00 0.00 0.00 30 1016.4
20260501202830 16 34 12.9 19.3 0.00 0.00 0.00 30 1016.4
20260501202326 16 5 11.3 20.9 0.00 0.00 0.00 32 1016.4
20260501201837 16 5 16.1 20.9 0.00 0.00 0.00 31 1016.6
20260501201355 15 62 9.7 17.7 0.00 0.00 0.00 34 1016.6
20260501200850 15 360 12.9 20.9 0.00 0.00 0.00 32 1016.6
20260501200328 15 15 14.5 24.1 0.00 0.00 0.00 31 1016.5
20260501195845 16 74 17.7 24.1 0.00 0.00 0.00 30 1016.5
20260501195322 16 20 11.3 20.9 0.00 0.00 0.00 30 1016.5
20260501194817 16 250 11.3 17.7 0.00 0.00 0.00 31 1016.7
20260501194336 16 342 11.3 33.8 0.00 0.00 0.00 30 1016.7
20260501193831 16 15 11.3 33.8 0.00 0.00 0.00 34 1016.7
20260501193327 16 276 8.0 12.9 0.00 0.00 0.00 34 1016.8
20260501192823 15 65 4.8 16.1 0.00 0.00 0.00 31 1016.8
20260501192341 15 321 11.3 17.7 0.00 0.00 0.00 34 1016.8
20260501191842 16 331 11.3 17.7 0.00 0.00 0.00 32 1017.0
20260501191333 16 34 6.4 29.0 0.00 0.00 0.00 34 1017.0
20260501190829 15 355 17.7 29.0 0.00 0.00 0.00 32 1017.0
20260501190324 15 325 17.7 27.4 0.00 0.00 0.00 34 1017.1
20260501185821 15 355 22.5 27.4 0.00 0.00 0.00 34 1017.1
20260501185339 16 13 14.5 19.3 0.00 0.00 0.00 32 1017.1
20260501184853 15 34 11.3 19.3 0.00 0.00 0.00 34 1017.3
20260501184328 16 286 14.5 22.5 0.00 0.00 0.00 32 1017.3
20260501183824 15 17 14.5 22.5 0.00 0.00 0.00 34 1017.3
20260501183341 15 339 3.2 19.3 0.00 0.00 0.00 33 1017.5
20260501182820 15 17 1.6 24.1 0.00 0.00 0.00 32 1017.5
20260501182355 15 360 14.5 24.1 0.00 0.00 0.00 34 1017.5
20260501181830 15 298 3.2 16.1 0.00 0.00 0.00 34 1017.5
20260501181326 15 10 8.0 16.1 0.00 0.00 0.00 34 1017.5
20260501180822 15 300 1.6 29.0 0.00 0.00 0.00 34 1017.5
20260501180318 15 54 14.5 29.0 0.00 0.00 0.00 33 1017.6
20260501175854 15 31 17.7 27.4 0.00 0.00 0.00 33 1017.6
20260501175330 15 26 22.5 27.4 0.00 0.00 0.00 33 1017.6
20260501174825 14 355 8.0 25.7 0.00 0.00 0.00 35 1017.6
20260501174321 15 351 12.9 30.6 0.00 0.00 0.00 34 1017.6
20260501173837 14 338 8.0 33.8 0.00 0.00 0.00 34 1017.6
20260501173352 14 338 16.1 33.8 0.00 0.00 0.00 35 1017.9
20260501172827 14 24 11.3 22.5 0.00 0.00 0.00 33 1017.9
20260501172323 14 29 9.7 17.7 0.00 0.00 0.00 34 1017.9
20260501171820 14 45 11.3 20.9 0.00 0.00 0.00 36 1018.0
20260501171336 13 334 11.3 20.9 0.00 0.00 0.00 35 1018.0
20260501170852 14 45 11.3 19.3 0.00 0.00 0.00 35 1018.0
20260501170330 14 72 12.9 16.1 0.00 0.00 0.00 34 1018.0
20260501165826 14 5 4.8 19.3 0.00 0.00 0.00 36 1018.0
20260501165324 13 12 12.9 19.3 0.00 0.00 0.00 37 1018.0
20260501164842 13 13 3.2 16.1 0.00 0.00 0.00 37 1017.9
20260501164358 13 360 8.0 20.9 0.00 0.00 0.00 36 1017.9
20260501163850 13 288 11.3 22.5 0.00 0.00 0.00 37 1017.9
20260501163339 13 25 16.1 20.9 0.00 0.00 0.00 37 1018.2
20260501162831 13 331 6.4 17.7 0.00 0.00 0.00 35 1018.2
20260501161841 12 288 6.4 19.3 0.00 0.00 0.00 38 1018.1
20260501161353 12 22 4.8 22.5 0.00 0.00 0.00 36 1018.1
20260501160828 12 355 14.5 22.5 0.00 0.00 0.00 37 1018.1
20260501160320 13 338 8.0 22.5 0.00 0.00 0.00 36 1018.2
20260501155831 13 342 14.5 20.9 0.00 0.00 0.00 37 1018.2
20260501155327 12 27 14.5 19.3 0.00 0.00 0.00 37 1018.2
20260501154818 12 333 12.9 17.7 0.00 0.00 0.00 38 1018.1
20260501154333 12 355 8.0 19.3 0.00 0.00 0.00 38 1018.1
20260501153831 11 317 11.3 19.3 0.00 0.00 0.00 38 1018.1
20260501153345 11 277 8.0 20.9 0.00 0.00 0.00 38 1018.1
20260501152838 11 310 9.7 20.9 0.00 0.00 0.00 37 1018.1